Location: Gorrie
(43.8742°N, 81.1087°W)
Time: 22:26:45
(UTC+00:00)

Meteor 1-5 Rocket - Pass Details

Date: 09 December 2025
Orbit: 788 x 913 km, 81.2° (Epoch: 21 January)

Event Time Altitude Azimuth Distance (km) Brightness Sun altitude
Rises 23:57:59 0° 347° (NNW) 3,299 7.3 -22.8°
Reaches altitude 10° 00:00:21 10° 345° (NNW) 2,373 6.6 -23.2°
Maximum altitude 00:05:39 68° 263° (W) 869 4.4 -24.2°
Drops below altitude 10° 00:11:02 10° 182° (S) 2,414 6.7 -25.1°
Sets 00:13:28 0° 179° (S) 3,361 7.4 -25.6°
